Eastover, SC

10:28 PM EST on December 11, 2019 (GMT -0500)
McEntire Angs

Weather History for KMMT - November, 2019

Change the Weather History Date:

Monday, November 18, 2019

  Actual Average Record
Temperature  
Mean Temperature 47 °F -  
Max Temperature 52 °F 63 °F 84 °F (2013)
Min Temperature 42 °F 42 °F 21 °F (2014)
Degree Days  
Heating Degree Days 18    
Moisture  
Dew Point 45 °F    
Average Humidity 94    
Maximum Humidity 100    
Minimum Humidity 74    
Precipitation  
Precipitation 0.16 in - - ()
Sea Level Pressure  
Sea Level Pressure 29.84 in    
Wind  
Wind Speed 3 mph ()    
Max Wind Speed 7 mph    
Max Gust Speed -    
Visibility 6.1 miles    
Events Fog , Rain    
Averages and records for this station are not official NWS values.
T = Trace of Precipitation, MM = Missing Value Source: Averaged Metar Reports

Daily Weather History Graph

Daily Weather History Graph

Search for Another Location

Airport or City:

Astronomy

Nov. 18, 2019 Rise Set
Actual Time 6:58 AM EST 5:18 PM EST
Civil Twilight 6:31 AM EST 5:44 PM EST
Nautical Twilight 6:01 AM EST 6:15 PM EST
Astronomical Twilight 5:31 AM EST 6:44 PM EST
Moon 11:02 PM EST (11/18) 12:26 PM EST (11/18)
Length of Visible Light 11h 13m
Length of Day
10h 20m
Waning Gibbous, 63% of the Moon is Illuminated
Nov 18
Waning Gibbous
Nov 19
Last Quarter
Nov 26
New
Dec 4
First Quarter
Dec 12
Full

Hourly Weather History & Observations

Time (EST) Temp. Windchill Dew Point Humidity Pressure Visibility Wind Dir Wind Speed Gust Speed Precip Events Conditions
12:56 AM 47.5 °F - 39.9 °F 75% 29.90 in 10.0 mi North 4.6 mph - N/A   Mostly Cloudy
1:56 AM 47.1 °F - 39.2 °F 74% 29.88 in 10.0 mi NNE 5.8 mph - N/A   Mostly Cloudy
2:56 AM 47.3 °F - 39.4 °F 74% 29.87 in 4.0 mi North 5.8 mph - N/A   Haze
3:56 AM 46.4 °F 42.9 °F 39.2 °F 76% 29.85 in 5.0 mi NE 6.9 mph - N/A   Haze
4:56 AM 46.4 °F 45.2 °F 39.9 °F 78% 29.86 in 9.0 mi ENE 3.5 mph - N/A   Overcast
5:56 AM 44.8 °F 43.3 °F 42.3 °F 91% 29.87 in 8.0 mi NNE 3.5 mph - 0.01 in   Overcast
6:16 AM 44.6 °F - 42.8 °F 93% 29.88 in 9.0 mi Calm Calm - N/A   Overcast
6:36 AM 44.6 °F 43.1 °F 44.6 °F 100% 29.89 in 5.0 mi West 3.5 mph - N/A Rain Light Rain
6:46 AM 44.6 °F 43.1 °F 44.6 °F 100% 29.89 in 6.0 mi West 3.5 mph - N/A Rain Light Rain
6:56 AM 44.2 °F - 43.2 °F 96% 29.89 in 5.0 mi Calm Calm - 0.01 in Rain Light Rain
7:56 AM 44.4 °F 42.9 °F 43.9 °F 98% 29.91 in 3.0 mi WNW 3.5 mph - 0.01 in Rain Light Rain
8:06 AM 44.6 °F 43.1 °F 44.6 °F 100% 29.90 in 2.0 mi WNW 3.5 mph - N/A Rain Light Rain
8:16 AM 44.6 °F - 44.6 °F 100% 29.90 in 4.0 mi Calm Calm - N/A Rain Light Rain
8:26 AM 44.6 °F 43.1 °F 44.6 °F 100% 29.90 in 4.0 mi NNW 3.5 mph - N/A Rain Light Rain
8:56 AM 44.4 °F - 44.2 °F 99% 29.90 in 4.0 mi Calm Calm - 0.12 in Rain Light Rain
9:06 AM 44.6 °F 43.1 °F 44.6 °F 100% 29.89 in 4.0 mi East 3.5 mph - N/A Rain Light Rain
9:26 AM 44.6 °F - 44.6 °F 100% 29.90 in 3.0 mi Calm Calm - N/A Rain Light Rain
10:26 AM 46.4 °F - 46.4 °F 100% 29.89 in 10.0 mi Calm Calm - N/A   Light Drizzle
10:45 AM 46.4 °F 45.2 °F 44.6 °F 93% 29.89 in 5.0 mi West 3.5 mph - N/A Rain Light Rain
10:56 AM 46.8 °F - 44.8 °F 93% 29.89 in 7.0 mi Calm Calm - 0.01 in   Light Drizzle
11:06 AM 48.2 °F - 46.4 °F 93% 29.88 in 10.0 mi Calm Calm - N/A   Overcast
11:36 AM 48.2 °F - 46.4 °F 93% 29.87 in 10.0 mi West 5.8 mph - N/A   Overcast
11:46 AM 48.2 °F - 46.4 °F 93% 29.86 in 10.0 mi West 3.5 mph - N/A   Overcast
11:56 AM 47.7 °F - 45.5 °F 92% 29.85 in 10.0 mi Calm Calm - N/A   Overcast
12:16 PM 48.2 °F - 46.4 °F 93% 29.84 in 10.0 mi WSW 4.6 mph - N/A   Overcast
12:56 PM 48.4 °F - 45.9 °F 91% 29.82 in 10.0 mi Calm Calm - 0.00 in   Overcast
1:20 PM 50.0 °F - 46.4 °F 87% 29.80 in 10.0 mi WNW 3.5 mph - N/A   Overcast
1:46 PM 50.0 °F - 46.4 °F 87% 29.80 in 10.0 mi West 4.6 mph - N/A   Overcast
1:56 PM 50.4 °F - 46.9 °F 88% 29.80 in 10.0 mi WNW 5.8 mph - N/A   Overcast
2:14 PM 50.0 °F - 46.4 °F 87% 29.80 in 10.0 mi West 4.6 mph - N/A   Overcast
2:56 PM 51.6 °F - 47.3 °F 85% 29.79 in 10.0 mi SW 4.6 mph - N/A   Mostly Cloudy
3:19 PM 51.8 °F - 48.2 °F 88% 29.79 in 10.0 mi SW 4.6 mph - N/A   Overcast
3:56 PM 52.0 °F - 47.7 °F 85% 29.79 in 10.0 mi Calm Calm - N/A   Overcast
4:16 PM 51.8 °F - 48.2 °F 88% 29.79 in 10.0 mi West 3.5 mph - N/A   Mostly Cloudy
4:26 PM 51.8 °F - 48.2 °F 88% 29.79 in 10.0 mi Calm Calm - N/A   Overcast
4:56 PM 51.6 °F - 47.8 °F 87% 29.79 in 10.0 mi Calm Calm - N/A   Mostly Cloudy
5:36 PM 50.0 °F - 48.2 °F 94% 29.79 in 10.0 mi Calm Calm - N/A   Mostly Cloudy
5:56 PM 49.3 °F - 48.9 °F 99% 29.80 in 10.0 mi Calm Calm - N/A   Overcast
6:36 PM 48.2 °F - 48.2 °F 100% 29.80 in 10.0 mi Calm Calm - N/A   Mostly Cloudy
6:56 PM 48.0 °F - 48.0 °F 100% 29.81 in 10.0 mi Calm Calm - N/A   Mostly Cloudy
7:26 PM 46.4 °F - 46.4 °F 100% 29.81 in 3.0 mi Calm Calm - N/A   Mostly Cloudy
7:41 PM 44.6 °F 43.1 °F 44.6 °F 100% 29.82 in 2.0 mi East 3.5 mph - N/A   Scattered Clouds
7:56 PM 45.5 °F - 45.5 °F 100% 29.82 in 2.0 mi Calm Calm - N/A   Mostly Cloudy
8:56 PM 43.7 °F - 43.7 °F 100% 29.83 in 1.0 mi Calm Calm - N/A   Mostly Cloudy
9:11 PM 44.6 °F 43.1 °F 44.6 °F 100% 29.83 in 1.2 mi ESE 3.5 mph - N/A   Clear
9:26 PM 44.6 °F 43.1 °F 44.6 °F 100% 29.83 in 1.0 mi ESE 3.5 mph - N/A   Clear
9:56 PM 43.9 °F 42.3 °F 43.9 °F 100% 29.81 in 0.8 mi ESE 3.5 mph - N/A   Clear
10:11 PM 42.8 °F 41.1 °F 42.8 °F 100% 29.81 in 0.6 mi East 3.5 mph - N/A   Clear
10:41 PM 42.8 °F - 42.8 °F 100% 29.82 in 0.2 mi Calm Calm - N/A Fog Fog
10:51 PM 42.8 °F - 42.8 °F 100% 29.82 in 0.2 mi Calm Calm - N/A Fog Fog
10:56 PM 43.2 °F - 43.2 °F 100% 29.82 in 0.2 mi Calm Calm - N/A Fog Fog
11:16 PM 42.8 °F - 42.8 °F 100% 29.81 in 0.2 mi Calm Calm - N/A Fog Fog
11:46 PM 42.8 °F - 42.8 °F 100% 29.81 in 0.5 mi Calm Calm - N/A Fog Fog
11:56 PM 44.2 °F - 44.2 °F 100% 29.81 in 0.5 mi Calm Calm - N/A Fog Fog